Date String (YYYY-MM-DD hh:mm:ss) UTC,Instrument flags,Ambient pressure (hPa),Sample flow (lpm),Bypass flow (lpm),Sample temperature (°C),Ambient temperature (°C),ASC tube jacket temperature (°C),LED temperature (°C),Box temperature (°C),Sample RH (%),Span deviation,Mass concentration (μg/m³),Mass concentration (μg/m³),Mass concentration (μg/m³)
DateTimeUTC,F1_M11,P_M11,Q1_M11,Q2_M11,T1_M11,T2_M11,T3_M11,T4_M11,T5_M11,U1_M11,ZSPAN_M11,X2_M11,X0_M11,X1_M11
2023-03-04 20:00:00,,0819.3,5.01,0.00,22.9,21.1,00.0,31.7,24.7,12.6,0000.4,0007.74,0013.13,0007.23
2023-03-04 20:01:00,,0819.2,4.99,0.00,22.9,21.1,00.0,31.7,24.6,12.8,0000.2,0007.77,0013.19,0007.29
2023-03-04 20:02:00,,0819.2,5.00,0.00,22.9,21.1,00.0,31.6,24.6,12.9,0000.3,0007.85,0012.82,0007.36
2023-03-04 20:03:00,,0819.3,5.01,0.00,22.9,21.1,00.0,31.6,24.6,12.9,0000.2,0007.85,0012.34,0007.39
2023-03-04 20:04:00,,0819.3,4.99,0.00,22.8,21.1,00.0,31.6,24.6,12.9,-000.0,0007.91,0012.41,0007.42
2023-03-04 20:05:00,,0819.2,5.02,0.00,22.8,21.1,00.0,31.6,24.6,12.9,-000.8,0007.96,0012.24,0007.47
2023-03-04 20:06:00,,0819.1,5.01,0.00,22.8,21.1,00.0,31.6,24.6,12.8,-001.0,0007.98,0011.98,0007.50
2023-03-04 20:07:00,,0819.1,5.00,0.00,22.8,21.1,00.0,31.6,24.6,12.8,-000.8,0008.01,0011.75,0007.53
2023-03-04 20:08:00,,0819.1,4.99,0.00,22.8,21.1,00.0,31.6,24.6,12.9,-000.9,0008.03,0011.51,0007.55
2023-03-04 20:09:00,,0819.2,5.01,0.00,22.8,21.1,00.0,31.6,24.6,12.8,-001.0,0008.04,0011.48,0007.55
2023-03-04 20:10:00,,0819.2,5.02,0.00,22.8,21.1,00.0,31.6,24.6,12.7,-001.0,0008.06,0011.46,0007.58
2023-03-04 20:11:00,,0819.1,5.02,0.00,22.8,21.1,00.0,31.6,24.6,12.8,-000.8,0008.10,0011.62,0007.59
2023-03-04 20:12:00,,0819.1,5.03,0.00,22.8,21.1,00.0,31.6,24.6,12.9,-000.3,0008.16,0011.82,0007.60
2023-03-04 20:13:00,,0819.1,5.01,0.00,22.8,21.1,00.0,31.6,24.5,12.8,0000.0,0008.20,0011.93,0007.62
2023-03-04 20:14:00,,0819.1,5.03,0.00,22.7,21.1,00.0,31.6,24.5,12.6,0000.2,0008.20,0012.27,0007.61
2023-03-04 20:15:00,,0819.1,5.00,0.00,22.7,21.1,00.0,31.5,24.6,12.6,0000.2,0008.18,0012.29,0007.58
2023-03-04 20:16:00,,0819.1,4.99,0.00,22.8,21.1,00.0,31.5,24.6,12.7,0000.7,0008.13,0012.21,0007.53
2023-03-04 20:17:00,,0819.1,4.99,0.00,22.8,21.2,00.0,31.5,24.6,12.7,0000.7,0008.11,0012.21,0007.51
2023-03-04 20:18:00,,0819.1,5.00,0.00,22.8,21.2,00.0,31.5,24.6,12.7,0000.8,0008.12,0012.29,0007.51
2023-03-04 20:19:00,,0819.1,5.00,0.00,22.8,21.2,00.0,31.5,24.6,12.6,0000.8,0008.12,0012.29,0007.50
2023-03-04 20:20:00,,0819.1,5.01,0.00,22.8,21.3,00.0,31.5,24.6,12.5,0000.9,0008.08,0012.19,0007.49
2023-03-04 20:21:00,,0819.0,5.00,0.00,22.8,21.3,00.0,31.5,24.6,12.7,0001.1,0008.07,0012.15,0007.48
2023-03-04 20:22:00,,0819.0,5.01,0.00,22.8,21.3,00.0,31.5,24.6,12.7,0001.0,0008.07,0012.00,0007.48
2023-03-04 20:23:00,,0819.0,5.02,0.00,22.8,21.3,00.0,31.5,24.6,12.9,0000.8,0008.09,0011.84,0007.49
2023-03-04 20:24:00,,0819.0,5.00,0.00,22.8,21.3,00.0,31.5,24.6,12.9,0000.6,0008.07,0011.77,0007.49
2023-03-04 20:25:00,,0819.0,5.00,0.00,22.8,21.3,00.0,31.5,24.6,12.9,0000.5,0008.12,0011.53,0007.52
2023-03-04 20:26:00,,0819.0,4.99,0.00,22.8,21.3,00.0,31.5,24.6,12.9,0000.6,0008.16,0011.50,0007.57
2023-03-04 20:27:00,,0819.0,5.00,0.00,22.8,21.3,00.0,31.5,24.6,12.9,0000.4,0008.21,0011.54,0007.62
2023-03-04 20:28:00,,0819.0,5.00,0.00,22.8,21.3,00.0,31.5,24.6,13.0,0000.5,0008.24,0011.58,0007.64
2023-03-04 20:29:00,,0818.9,5.00,0.00,22.8,21.4,00.0,31.5,24.6,12.9,0000.4,0008.22,0011.50,0007.63
2023-03-04 20:30:00,,0818.9,5.00,0.00,22.8,21.4,00.0,31.5,24.7,12.9,0000.1,0008.22,0011.55,0007.61
2023-03-04 20:31:00,,0819.0,5.01,0.00,22.8,21.4,00.0,31.5,24.6,12.9,0000.2,0008.25,0011.68,0007.59
2023-03-04 20:32:00,,0818.9,5.00,0.00,22.8,21.4,00.0,31.5,24.7,12.9,0000.3,0008.25,0011.71,0007.58
2023-03-04 20:33:00,,0818.8,4.99,0.00,22.8,21.4,00.0,31.5,24.6,12.9,0000.2,0008.23,0011.76,0007.57
2023-03-04 20:34:00,,0818.8,5.01,0.00,22.8,21.4,00.0,31.5,24.7,12.7,0000.1,0008.15,0011.70,0007.53
2023-03-04 20:35:00,,0818.8,5.00,0.00,22.8,21.4,00.0,31.5,24.7,12.7,0000.2,0008.11,0011.70,0007.50
2023-03-04 20:36:00,,0818.8,5.01,0.00,22.8,21.4,00.0,31.5,24.7,12.7,0000.5,0008.01,0011.46,0007.46
2023-03-04 20:37:00,,0818.7,4.99,0.00,22.8,21.4,00.0,31.5,24.7,12.8,0000.4,0007.94,0011.37,0007.41
2023-03-04 20:38:00,,0818.8,4.99,0.00,22.8,21.5,00.0,31.5,24.7,12.8,0000.3,0007.91,0011.37,0007.38
2023-03-04 20:39:00,,0818.8,5.01,0.00,22.8,21.5,00.0,31.5,24.7,12.9,0000.3,0007.88,0011.39,0007.36
2023-03-04 20:40:00,,0818.7,4.99,0.00,22.8,21.4,00.0,31.5,24.7,13.1,0000.2,0007.94,0011.49,0007.39
2023-03-04 20:41:00,,0818.7,4.99,0.00,22.8,21.4,00.0,31.5,24.7,13.0,0000.4,0007.94,0011.42,0007.41
2023-03-04 20:42:00,,0818.7,4.99,0.00,22.8,21.3,00.0,31.5,24.6,13.0,0000.2,0007.93,0011.30,0007.43
2023-03-04 20:43:00,,0818.7,4.98,0.00,22.8,21.3,00.0,31.5,24.6,12.9,-000.0,0007.94,0011.29,0007.45
2023-03-04 20:44:00,,0818.7,4.99,0.00,22.8,21.3,00.0,31.5,24.7,13.0,-000.2,0007.97,0011.20,0007.48
2023-03-04 20:45:00,,0818.7,5.00,0.00,22.8,21.3,00.0,31.5,24.6,13.1,-000.1,0008.05,0011.32,0007.52
2023-03-04 20:46:00,,0818.7,5.01,0.00,22.8,21.3,00.0,31.5,24.7,12.7,-000.2,0008.10,0011.35,0007.54
2023-03-04 20:47:00,,0818.7,5.00,0.00,22.8,21.3,00.0,31.5,24.7,12.6,-000.4,0008.15,0011.48,0007.56
2023-03-04 20:48:00,,0818.6,5.00,0.00,22.8,21.3,00.0,31.5,24.7,12.6,-000.2,0008.16,0011.91,0007.57
2023-03-04 20:49:00,,0818.7,5.00,0.00,22.8,21.3,00.0,31.5,24.7,12.7,-000.4,0008.19,0011.90,0007.57
2023-03-04 20:50:00,,0818.6,5.01,0.00,22.8,21.3,00.0,31.5,24.7,12.9,-000.7,0008.21,0011.89,0007.58
2023-03-04 20:51:00,,0818.7,4.99,0.00,22.8,21.4,00.0,31.5,24.7,13.0,-000.7,0008.23,0011.92,0007.58
2023-03-04 20:52:00,,0818.7,5.00,0.00,22.8,21.4,00.0,31.5,24.7,13.2,-000.7,0008.25,0012.03,0007.59
2023-03-04 20:53:00,,0818.7,5.00,0.00,22.8,21.3,00.0,31.5,24.7,13.3,-000.7,0008.28,0012.52,0007.59
2023-03-04 20:54:00,,0818.6,5.01,0.00,22.8,21.3,00.0,31.5,24.6,13.2,-000.6,0008.31,0012.62,0007.60
2023-03-04 20:55:00,,0818.6,4.99,0.00,22.8,21.3,00.0,31.5,24.7,13.2,-000.5,0008.30,0012.62,0007.61
2023-03-04 20:56:00,,0818.6,5.01,0.00,22.8,21.3,00.0,31.5,24.7,13.0,-000.2,0008.27,0012.52,0007.60
2023-03-04 20:57:00,,0818.5,4.99,0.00,22.8,21.3,00.0,31.5,24.7,12.8,0000.1,0008.28,0012.89,0007.61
2023-03-04 20:58:00,,0818.5,5.00,0.00,22.8,21.4,00.0,31.5,24.7,12.9,0000.3,0008.27,0013.03,0007.60
2023-03-04 20:59:00,,0818.5,5.00,0.00,22.8,21.4,00.0,31.5,24.7,13.1,0000.0,0008.35,0012.85,0007.67
